GFSWCAN_850_rhum_024.txt.gz
RH
100 100 96 98 100 87 79 67 57 51 47 45 46 48 48 49 52 49 45 41 34 38 58 57 52 62 59 58 74 80 75 86 98 99 100 98 98 69 65 50 65 65 98 99 93 98 93 45 49 72 62 64 62 74
100 100 98 99 100 100 88 78 71 62 54 51 53 58 57 55 54 52 48 46 42 39 57 60 56 51 51 53 63 82 66 72 77 94 98 98 99 97 98 76 49 64 52 54 56 57 40 44 52 57 68 76 94 99
98 99 100 98 95 98 93 87 79 73 67 62 61 65 66 63 60 55 53 51 48 50 68 70 71 66 63 59 56 72 72 74 78 77 86 95 96 78 99 86 59 48 51 67 64 48 45 52 58 93 98 91 99 98
99 97 100 100 100 93 93 92 90 83 81 79 78 76 76 73 68 64 61 58 56 54 64 77 68 72 69 68 67 65 64 63 69 72 88 100 99 68 87 68 72 53 50 58 60 58 62 64 90 99 100 98 88 69
96 89 92 96 99 100 98 90 92 91 87 91 91 87 85 84 82 78 75 71 66 61 79 76 69 68 67 67 71 74 76 77 79 95 99 99 87 89 92 92 94 59 56 76 85 67 82 96 98 99 98 73 58 55
98 87 80 92 91 92 96 91 87 88 95 97 100 98 94 92 91 90 83 80 76 72 68 98 78 72 65 66 69 77 96 95 89 86 96 84 75 73 100 99 71 69 69 73 83 89 97 100 99 83 67 61 54 53
80 88 77 96 97 91 97 100 90 92 94 92 93 92 95 93 85 84 80 72 84 82 71 85 98 90 85 87 87 92 91 100 100 92 98 88 85 86 100 98 88 83 80 80 97 92 99 100 96 71 62 56 51 44
74 76 85 84 97 94 88 95 100 94 91 90 88 88 99 93 87 93 82 74 80 84 75 98 98 93 89 96 97 99 99 100 100 98 100 100 98 100 100 85 80 80 81 83 90 89 91 77 67 60 49 44 44 41
78 76 86 99 98 96 94 92 100 98 94 93 94 96 100 100 100 98 87 86 87 78 84 99 100 100 92 99 100 99 98 100 99 100 100 100 100 99 90 82 82 83 82 80 75 66 56 49 41 40 41 42 48 50
79 77 80 94 84 95 95 98 100 100 100 100 100 100 100 100 99 93 100 100 100 99 98 99 96 100 99 100 100 100 100 100 100 98 97 100 99 89 86 84 82 80 76 81 65 41 40 43 43 48 53 56 59 59
80 76 74 75 84 80 96 98 94 100 100 100 99 98 100 100 99 99 99 100 100 99 100 100 100 99 99 99 100 100 100 100 99 86 95 93 87 79 78 70 65 53 56 47 46 47 46 50 53 60 62 65 71 63
83 81 84 76 81 90 91 100 100 100 100 99 97 99 99 99 99 99 100 99 100 100 100 99 100 100 100 99 99 100 100 100 95 84 97 86 67 79 74 66 52 46 51 48 46 47 51 59 68 72 62 60 57 59
88 90 91 92 99 100 86 99 99 100 100 100 98 100 100 100 100 100 98 99 99 99 99 100 99 99 100 100 99 100 100 97 91 95 80 65 76 80 72 61 58 54 43 36 43 50 60 60 57 57 56 57 59 56
89 97 95 99 100 100 99 90 100 100 100 100 100 98 100 99 99 98 96 95 99 100 100 99 99 99 99 99 98 99 94 86 91 88 84 73 78 80 68 64 55 51 45 36 37 43 54 59 58 58 61 59 56 56
87 99 97 100 100 100 100 100 100 97 96 97 90 98 97 99 99 99 99 99 100 100 96 94 98 98 99 98 91 94 95 88 76 73 72 71 80 72 65 52 59 50 38 37 46 54 62 62 62 62 60 59 65 62
91 100 96 100 100 100 100 100 100 98 71 56 82 95 99 98 99 100 100 100 99 99 98 89 97 98 96 90 94 89 82 75 70 74 80 79 69 52 48 37 34 38 42 47 58 63 63 63 65 62 58 60 58 59
96 100 88 100 100 100 99 100 93 81 96 62 95 92 91 94 95 98 97 100 100 91 95 83 86 83 86 89 88 75 83 73 72 83 65 49 43 44 43 41 39 42 46 52 57 64 69 66 62 61 58 58 67 68
100 98 87 98 100 100 87 76 68 67 83 76 87 91 89 94 85 87 88 98 98 79 68 70 65 77 72 73 68 70 75 74 64 45 48 51 52 50 48 44 46 50 56 60 63 67 67 60 61 83 89 96 93 96
100 98 96 99 100 95 94 90 68 77 87 86 89 88 86 88 84 82 84 92 81 72 64 73 82 69 63 57 70 74 55 55 63 55 60 58 50 47 49 49 51 54 58 62 68 70 68 65 69 74 92 100 100 100
100 100 100 100 96 97 95 86 64 63 80 89 89 89 85 88 85 88 91 95 90 82 95 90 77 72 64 42 35 36 40 51 62 73 69 70 62 51 54 56 57 66 69 67 64 62 64 72 91 96 96 100 100 100
100 99 99 99 90 65 73 82 77 80 84 95 90 91 91 86 88 93 100 100 96 89 74 75 69 50 52 54 56 60 63 59 65 67 67 69 72 72 56 57 61 67 61 56 59 64 71 82 96 88 88 100 100 97
99 99 98 98 88 64 69 77 86 79 82 97 90 87 98 97 100 99 99 100 92 78 79 61 55 51 50 44 39 42 43 45 48 50 51 53 58 73 72 59 57 56 58 62 65 70 82 92 94 92 99 99 98 99
99 99 97 91 72 74 93 81 86 76 77 91 90 86 89 94 100 98 98 88 82 54 40 36 33 36 39 39 40 38 38 41 44 45 48 53 58 59 59 61 64 68 73 75 81 89 96 96 92 100 100 100 100 100
96 95 96 78 75 100 92 97 94 97 96 85 79 77 81 94 99 100 90 88 51 32 32 35 41 43 40 37 37 36 35 37 39 45 59 62 61 60 62 64 72 79 85 92 98 100 95 99 100 100 100 100 99 99
86 92 76 97 97 92 86 86 91 89 97 93 90 83 90 100 93 96 87 70 40 33 36 37 38 40 41 44 46 46 46 46 56 63 60 57 57 58 66 96 98 90 89 91 98 100 99 100 100 100 100 100 100 96
90 96 85 91 94 80 89 92 88 91 92 98 94 96 99 88 86 73 63 71 48 45 45 48 52 54 59 62 60 60 64 61 62 61 56 62 70 78 84 97 100 100 98 94 95 93 92 95 99 100 95 92 87 82
91 93 99 90 94 90 95 100 97 89 98 97 86 94 86 83 76 61 71 62 67 57 58 59 64 70 72 74 74 74 72 84 90 83 78 81 88 94 88 96 99 98 93 100 99 96 96 99 97 94 93 89 87 85
95 99 94 100 100 89 88 89 89 94 82 84 87 90 82 74 64 90 72 67 69 71 72 73 75 76 81 82 86 93 92 94 94 90 89 92 98 94 98 99 97 96 97 97 97 95 96 96 96 96 95 94 94 93
100 97 98 100 100 100 93 80 80 80 72 82 77 71 75 77 77 82 82 82 77 71 70 69 68 73 77 79 84 91 93 94 96 96 97 98 98 97 98 96 96 95 96 97 97 97 96 96 96 96 96 95 93 94
100 99 99 100 99 94 88 72 78 69 68 68 68 74 81 86 91 90 86 82 78 79 82 85 86 85 88 89 91 95 100 98 94 95 96 96 96 96 96 96 96 96 96 96 96 95 94 91 87 83 85 87 91 96
100 100 100 99 94 93 78 76 78 81 82 75 64 70 86 84 93 95 92 84 81 81 79 81 85 91 88 90 93 94 96 96 96 96 96 96 96 96 96 96 96 96 95 95 89 81 78 78 81 85 89 91 93 95
100 100 98 97 98 82 78 73 68 63 51 46 59 65 94 100 100 100 94 85 85 81 84 87 87 88 92 96 98 98 99 98 96 96 96 96 96 96 96 96 96 95 94 87 84 84 84 85 85 86 89 91 93 95
100 100 100 100 98 78 63 46 56 71 74 90 100 100 100 100 100 97 94 93 90 88 90 92 94 97 98 99 98 98 97 97 96 96 96 96 96 96 96 96 96 96 95 90 87 83 82 81 82 85 88 92 93 93

GFSWCAN_850_rhum_027.txt.gz
RH
99 100 97 98 99 85 70 54 44 42 40 36 34 34 35 42 47 45 40 34 46 63 69 65 57 57 55 45 70 61 63 72 85 99 100 94 100 58 54 36 60 74 94 97 86 96 85 38 39 66 61 59 76 78
100 100 99 97 98 93 79 66 52 48 46 44 39 38 40 42 46 46 60 40 34 54 77 62 55 54 57 55 47 68 48 61 58 78 94 92 99 97 86 65 33 52 48 58 60 58 36 38 50 68 71 76 92 95
100 100 99 99 98 99 87 77 67 58 55 52 49 46 46 47 49 49 49 44 43 49 74 73 76 52 50 49 62 63 74 56 64 72 82 92 99 76 100 77 49 40 36 66 60 43 40 46 60 82 88 94 93 77
98 100 100 100 98 100 98 86 80 72 66 64 63 60 58 55 54 52 62 50 54 55 68 79 62 72 57 57 57 69 67 65 78 79 97 100 97 56 73 56 54 49 42 48 58 47 55 86 89 92 90 97 68 64
97 95 100 100 99 98 99 91 86 83 80 77 73 72 72 69 65 62 60 57 53 77 81 86 80 63 63 64 75 84 79 80 91 91 98 96 72 75 74 75 70 51 47 66 80 79 88 98 97 98 98 68 55 52
89 90 92 98 100 100 96 94 89 86 86 89 87 86 82 80 76 87 81 70 66 63 59 95 93 87 69 71 90 88 80 85 93 96 95 74 64 65 100 90 51 50 53 76 67 92 88 96 98 97 72 58 52 50
80 77 80 94 95 99 99 98 95 91 90 93 98 100 98 93 86 85 75 85 73 72 63 88 88 97 85 91 91 90 97 95 94 85 98 82 73 70 100 92 50 68 73 83 91 89 98 98 98 78 61 53 44 38
72 73 80 81 96 98 94 89 94 95 92 90 93 92 90 93 93 87 76 69 81 78 69 99 95 95 89 98 99 99 100 98 97 88 98 97 83 95 100 74 70 72 77 84 95 95 84 81 64 54 41 37 35 36
71 70 82 91 89 88 90 88 95 95 93 90 96 100 99 100 99 81 78 82 84 81 78 96 100 99 97 99 99 99 99 100 99 100 100 100 100 99 79 74 76 76 79 95 78 60 53 44 39 37 36 38 40 42
74 68 70 78 74 79 84 86 88 99 100 100 100 100 100 99 98 87 92 93 90 92 92 99 96 98 86 99 100 99 99 100 100 99 99 100 98 91 79 78 80 85 92 77 65 46 44 43 40 41 43 45 49 53
80 70 66 70 72 78 74 82 89 100 100 100 100 100 100 100 99 100 100 99 100 100 100 100 95 99 99 98 100 99 100 100 99 94 98 100 81 72 80 80 79 77 68 47 47 46 42 41 43 46 51 59 67 69
85 75 71 74 81 92 98 89 95 100 100 100 98 99 100 100 100 100 100 99 100 100 100 100 100 100 100 99 99 100 100 100 99 73 97 87 60 70 70 65 64 61 52 47 44 42 42 43 49 58 67 68 70 63
87 78 80 94 100 98 99 93 99 100 100 99 97 99 100 100 100 100 99 100 100 99 99 100 99 99 99 99 100 100 100 100 80 96 77 58 66 69 64 64 62 58 53 41 43 41 44 51 53 52 57 55 58 57
89 82 87 96 98 100 97 99 100 100 99 99 100 99 100 100 100 100 100 98 99 99 98 99 99 99 100 100 100 100 99 82 92 88 80 61 66 66 63 60 55 52 52 46 36 43 50 39 50 56 57 58 55 51
90 87 89 97 98 100 100 100 99 98 99 99 99 98 98 99 99 99 100 99 100 100 99 99 99 99 98 100 99 98 98 90 72 69 70 60 69 70 67 69 59 58 49 43 52 57 56 49 54 57 60 53 55 59
82 91 89 97 99 100 100 100 99 96 93 97 98 99 99 99 99 99 99 99 99 100 99 98 98 100 99 94 94 96 92 76 72 68 64 69 74 72 67 59 47 49 39 48 57 62 69 66 69 66 61 58 61 75
84 97 88 98 100 100 100 100 100 98 84 85 98 99 98 99 99 99 99 100 100 100 100 96 97 98 94 94 91 70 81 76 68 73 69 71 67 58 51 56 56 48 47 67 71 73 74 67 68 66 61 82 89 96
93 93 92 98 99 99 98 87 86 71 93 92 91 98 88 98 98 93 95 99 98 86 84 77 70 84 83 79 68 68 65 70 72 70 54 54 58 61 62 62 61 63 66 70 70 62 64 77 79 81 74 80 89 92
99 98 100 100 100 100 90 81 66 82 92 96 100 98 99 97 99 96 97 100 88 72 67 79 89 70 62 49 63 70 70 67 57 55 57 59 65 68 52 46 44 48 58 75 80 82 78 79 82 88 87 95 100 100
92 99 100 100 99 98 86 81 67 78 78 89 99 97 100 100 90 92 99 94 87 78 91 88 69 60 57 54 54 57 56 59 56 61 61 58 56 64 74 76 74 73 74 76 82 79 87 86 80 88 100 100 100 99
99 99 100 100 100 97 81 95 90 88 87 82 94 84 100 99 100 99 98 100 94 91 71 68 73 80 78 52 49 58 65 65 60 61 64 63 63 65 68 71 76 79 83 87 66 69 62 79 99 100 100 100 96 100
98 99 99 99 97 85 76 78 90 90 85 90 90 85 96 97 100 99 100 97 89 70 68 68 65 63 64 71 65 59 54 48 64 69 63 65 75 78 78 77 80 83 78 68 89 87 87 96 100 100 100 100 100 100
99 99 97 93 87 89 93 86 94 79 82 90 88 85 87 89 97 100 94 80 75 71 69 66 67 65 54 52 41 34 34 36 40 52 55 68 76 84 89 88 84 80 78 90 97 100 100 99 100 99 99 100 100 99
98 97 97 93 93 97 93 96 87 82 84 77 75 80 75 83 100 90 79 68 65 66 67 60 65 66 61 59 51 55 54 58 61 64 70 68 80 78 76 77 73 86 97 100 100 100 96 100 99 95 96 98 98 95
96 97 96 94 97 88 83 84 86 79 83 82 80 79 85 95 84 78 78 56 92 99 83 90 75 66 59 57 59 62 68 78 78 76 74 80 85 83 75 73 77 85 94 98 93 95 95 97 100 99 99 98 99 100
91 98 89 85 88 77 76 81 82 80 78 85 84 86 96 82 81 71 52 94 100 100 98 95 96 93 81 83 89 90 96 100 99 96 85 91 92 94 97 95 90 92 100 97 99 99 100 100 100 100 100 100 100 100
81 87 95 91 79 83 86 90 82 79 82 78 78 85 83 76 67 57 95 85 100 84 86 98 88 87 89 91 86 71 76 80 86 91 90 86 86 95 98 99 99 99 97 99 98 97 100 100 100 100 100 100 100 100
93 90 84 96 88 84 78 75 80 78 75 68 74 82 75 65 68 100 100 90 89 87 86 73 72 66 78 90 94 100 88 76 71 72 74 87 99 100 100 96 96 96 97 97 97 96 97 97 98 100 100 100 100 100
96 98 90 94 94 94 85 75 73 69 71 75 76 69 80 100 98 99 94 93 86 78 73 71 78 70 91 95 100 100 99 91 87 88 100 100 100 94 95 95 95 95 95 96 96 96 96 96 96 98 99 98 94 95
99 100 92 91 88 81 94 95 99 82 85 85 86 84 89 99 100 99 95 89 78 77 80 82 94 100 100 100 100 100 100 96 93 95 98 100 100 94 93 93 95 96 96 96 96 96 96 95 95 97 92 87 89 97
100 100 97 93 89 99 96 79 78 80 82 93 92 93 99 100 100 93 84 88 87 87 80 92 100 100 100 100 100 100 100 98 87 91 96 97 96 96 95 95 95 96 96 96 96 96 96 96 100 98 91 88 88 91
100 97 90 84 88 100 80 95 99 100 100 94 97 99 100 100 99 100 88 81 89 81 79 80 86 93 88 98 100 100 99 100 98 91 90 90 91 93 95 96 95 96 96 96 96 96 96 97 95 92 96 86 87 91
100 100 100 100 91 85 85 61 69 71 85 85 96 100 100 98 94 100 89 79 74 71 68 69 73 70 78 88 94 100 100 100 94 95 97 97 97 96 96 96 96 96 96 96 97 97 96 95 93 90 87 85 84 82

GFSWCAN_850_rhum_030.txt.gz
RH
99 94 97 97 83 71 58 51 45 41 38 35 31 30 33 42 44 40 37 33 52 67 67 63 52 50 48 48 78 55 66 68 91 100 100 95 99 72 55 37 77 80 91 94 85 91 85 38 45 82 68 66 80 82
96 95 96 97 99 87 69 58 49 45 40 36 34 32 34 39 44 46 58 37 35 58 78 77 62 57 57 66 52 59 49 65 71 86 91 89 99 99 96 71 26 56 61 71 71 72 43 46 67 75 75 84 84 81
100 98 93 95 98 97 83 70 58 51 45 40 37 36 37 39 43 48 59 41 49 53 75 67 78 52 52 54 62 65 65 50 52 70 86 92 99 84 99 83 48 34 30 65 57 43 39 60 76 86 88 89 88 72
100 100 99 94 95 95 94 79 68 59 52 48 47 44 43 43 46 48 66 46 62 54 74 78 72 69 48 45 58 66 63 62 73 74 96 100 98 57 88 65 65 53 45 48 51 41 43 85 94 94 91 86 69 60
99 100 100 100 100 97 98 87 78 71 65 60 57 56 54 54 54 51 49 49 53 78 82 84 73 75 59 60 80 75 76 74 80 93 99 97 77 76 76 80 84 53 49 68 74 67 68 94 91 94 87 70 55 50
100 100 100 100 100 98 98 96 88 83 79 75 71 71 66 64 64 76 78 58 56 72 55 94 89 86 75 73 81 83 77 76 86 94 98 89 58 66 100 89 51 39 40 60 65 88 89 87 88 83 76 57 50 48
88 99 97 98 100 100 100 98 92 90 86 86 87 89 82 76 73 87 77 90 68 65 56 87 95 92 82 81 83 88 88 86 82 76 96 92 77 69 100 98 47 45 59 71 88 85 95 94 86 84 66 53 40 35
84 86 94 98 97 100 100 96 96 94 93 94 99 100 94 89 88 90 72 63 78 79 71 100 94 92 88 92 97 98 95 91 87 88 96 90 74 90 100 74 57 54 72 86 94 90 88 84 75 57 44 36 36 36
75 83 85 89 91 93 98 100 99 94 95 100 98 92 87 89 91 87 80 76 85 88 84 98 99 99 91 99 98 98 94 100 99 99 99 95 100 96 81 70 63 68 73 80 80 66 58 51 41 38 37 38 40 42
70 68 70 70 74 82 89 90 92 100 95 94 91 100 100 99 94 78 76 76 77 81 93 98 90 96 84 95 98 94 95 100 100 99 99 100 98 87 74 71 71 74 88 82 70 53 45 45 43 41 42 44 50 59
74 69 65 62 66 63 70 80 84 98 100 100 100 100 98 99 94 92 98 99 99 100 100 100 98 97 97 93 100 99 100 100 99 96 98 98 94 74 80 79 82 82 86 69 52 46 43 42 43 44 47 55 60 65
76 76 76 75 75 79 84 87 93 99 99 100 99 99 100 100 100 100 100 100 100 99 100 99 99 99 100 99 99 100 100 100 100 89 100 91 64 76 77 77 77 70 54 48 45 43 43 42 47 52 52 44 53 55
81 79 88 100 95 96 92 99 99 100 100 100 96 98 100 100 99 100 99 100 100 99 100 100 100 99 99 99 99 100 100 99 96 99 88 74 67 66 64 63 63 58 52 48 46 47 46 39 33 31 38 47 52 55
87 83 89 95 94 90 98 99 100 100 97 99 100 99 100 100 100 100 100 100 100 100 100 100 99 98 99 100 100 100 100 99 97 94 84 78 62 62 60 62 59 57 56 54 50 43 44 44 33 34 43 48 57 52
88 89 90 90 90 98 100 99 98 92 96 99 99 99 99 99 99 99 100 99 100 100 99 99 100 99 100 100 100 100 98 96 92 93 95 69 64 64 67 65 60 58 55 45 44 44 38 39 42 45 51 59 59 57
80 92 94 93 88 98 99 99 97 83 88 97 99 99 99 99 99 99 100 100 99 100 100 99 99 100 99 100 98 98 96 93 100 85 70 72 73 70 72 65 59 40 33 35 30 33 46 58 69 65 64 65 62 69
76 98 94 91 94 97 98 98 97 90 70 93 98 100 100 99 99 99 100 100 100 99 100 99 98 96 98 96 95 93 98 94 76 71 70 74 74 69 62 51 50 55 56 50 53 58 64 62 56 62 64 67 78 83
97 90 96 100 99 95 92 88 78 82 87 90 97 99 95 98 97 95 99 99 98 93 90 95 86 92 87 81 75 80 66 72 76 74 68 63 57 56 61 63 58 61 56 52 54 56 59 64 75 75 76 78 77 90
94 93 100 100 97 89 92 76 95 84 90 96 99 99 100 100 100 100 100 99 90 76 76 77 92 74 73 53 70 72 71 68 64 60 55 57 59 60 59 53 45 42 43 57 68 72 75 79 77 70 73 87 96 96
96 99 100 100 99 97 86 84 79 78 77 87 96 94 98 99 99 100 100 89 84 80 92 88 74 67 64 57 55 56 56 60 56 60 63 61 57 56 58 63 65 64 72 75 76 78 83 81 74 75 86 95 96 98
97 94 99 100 100 97 97 90 89 81 83 78 88 89 100 98 98 99 99 96 85 94 76 68 67 79 79 70 57 50 55 58 64 63 64 65 60 59 53 52 60 71 75 80 85 78 68 70 75 92 95 96 98 99
98 98 99 99 95 90 98 90 86 89 84 85 84 82 94 94 97 99 99 96 88 76 70 68 67 65 64 64 68 66 57 49 44 47 50 54 63 66 68 68 74 76 80 79 69 71 80 92 94 94 91 94 94 96
99 99 99 98 97 97 94 96 90 80 81 90 81 82 85 85 94 98 87 80 75 71 71 69 68 66 51 58 51 38 38 42 52 67 66 68 72 77 80 79 78 78 78 76 73 78 79 95 92 87 92 92 95 91
98 98 98 97 96 95 96 93 80 78 79 77 79 78 73 81 94 84 76 65 63 67 70 69 69 68 63 63 64 59 64 68 75 77 79 75 72 76 78 80 79 74 79 85 92 94 86 90 89 91 95 94 94 95
98 97 97 95 95 87 80 81 80 75 76 76 74 77 84 92 81 72 73 82 82 99 99 99 82 73 68 69 74 86 92 87 85 82 76 85 90 90 92 82 77 82 76 91 98 93 88 95 95 92 93 91 96 95
95 97 95 82 87 78 74 80 78 76 75 80 77 88 90 77 78 70 63 100 99 99 99 99 100 98 96 95 97 93 76 59 53 65 77 73 71 80 94 94 92 93 91 92 95 98 98 97 97 96 94 95 96 95
92 84 89 84 76 81 85 83 76 75 78 75 76 80 79 79 69 84 100 100 100 97 100 100 100 99 93 98 81 80 86 82 77 81 78 88 98 98 98 97 96 96 94 92 96 96 96 96 97 97 97 96 96 97
87 90 83 90 83 80 75 72 77 75 71 62 73 77 74 65 84 100 100 100 96 100 100 100 87 69 91 90 97 100 96 72 67 72 69 99 99 96 94 90 90 94 94 95 96 96 96 97 96 96 96 96 96 96
93 96 88 90 88 89 80 74 70 63 67 70 73 69 92 100 100 100 100 96 100 96 97 86 97 90 100 100 100 100 98 85 74 74 81 99 92 82 82 83 85 86 88 91 93 97 97 98 95 96 96 96 96 97
98 92 86 87 83 78 97 98 98 93 90 87 94 87 97 100 100 100 100 100 94 89 93 99 100 100 100 100 100 100 100 100 95 99 100 98 95 88 88 88 90 90 90 93 94 93 95 95 95 96 98 96 96 98
100 98 88 84 82 95 100 90 80 78 78 98 96 99 100 100 100 96 89 100 100 98 93 94 98 97 83 86 100 100 100 99 100 100 100 100 92 90 90 88 91 95 96 97 97 97 99 95 98 97 96 96 96 95
96 93 78 75 91 98 94 100 98 98 92 100 98 93 100 100 100 100 90 99 100 100 74 63 58 70 55 72 86 87 100 100 100 100 98 100 95 92 92 92 92 94 97 97 97 98 100 97 97 96 97 96 96 95
99 97 98 89 82 80 94 87 66 67 83 76 96 92 98 100 98 100 95 80 73 57 48 48 50 54 84 90 66 87 90 66 68 98 100 100 93 87 92 96 97 99 98 99 98 99 98 98 97 97 97 97 87 80

GFSWCAN_850_rhum_033.txt.gz
RH
98 99 81 66 61 57 52 50 47 44 40 36 33 33 40 44 41 38 34 50 42 64 65 58 51 48 50 54 87 63 71 73 97 95 96 98 96 86 66 67 84 85 94 92 84 85 95 45 54 62 73 81 81 78
100 96 84 70 65 62 56 52 48 45 42 38 34 32 35 46 47 45 35 41 39 57 69 68 65 60 55 62 58 57 49 75 76 98 99 100 96 100 96 79 54 80 78 90 78 80 50 50 56 71 67 81 80 76
100 97 88 80 70 66 61 57 51 47 43 40 37 34 34 39 47 45 44 37 37 45 63 58 58 57 56 61 57 55 61 58 64 67 86 91 98 95 94 90 55 49 51 77 72 54 62 74 78 78 78 77 80 77
100 100 96 92 88 84 73 64 56 52 48 45 41 38 36 38 40 41 43 50 46 46 78 81 72 58 52 58 63 59 54 60 65 71 96 99 99 78 95 73 74 59 54 58 66 71 83 88 82 84 84 80 68 53
100 97 91 90 94 95 88 76 66 58 54 50 48 45 42 40 41 42 46 49 52 54 80 79 75 74 55 52 58 58 64 61 70 86 99 99 85 82 86 85 96 61 66 80 84 63 69 88 89 89 75 63 54 52
100 100 100 100 90 91 95 85 76 69 64 59 55 52 50 48 50 48 51 51 58 62 54 97 86 80 66 66 83 81 78 78 76 80 94 86 76 68 96 99 65 53 49 52 78 80 78 82 90 79 68 58 53 50
98 100 100 100 99 95 93 93 86 80 78 70 66 64 60 59 61 67 64 79 62 59 49 97 94 84 78 84 87 90 84 83 83 77 87 88 78 73 100 99 68 50 60 69 75 74 85 86 81 75 64 55 42 35
97 98 100 100 100 100 98 98 92 90 88 87 83 78 74 71 77 77 73 66 71 62 60 99 98 88 85 92 88 92 81 78 81 89 93 86 83 95 96 85 65 60 69 82 80 81 81 73 72 61 60 36 36 38
89 89 98 99 100 100 100 96 98 98 94 100 100 94 94 82 81 81 79 69 76 76 76 98 99 95 91 99 98 96 86 99 96 100 100 92 100 97 90 78 70 67 71 81 82 78 67 63 49 39 38 39 42 44
70 74 74 84 86 90 97 100 96 98 100 97 98 84 88 82 82 82 76 69 74 82 94 98 88 97 85 88 100 90 92 100 100 98 100 100 99 84 72 73 70 70 71 80 70 58 43 44 43 42 43 45 47 51
66 62 67 66 62 64 82 95 100 100 100 100 90 97 99 95 90 84 83 92 96 98 99 99 91 94 93 98 100 96 100 100 95 91 98 99 98 85 79 76 74 74 82 93 72 46 43 43 43 44 45 47 46 40
72 69 69 67 65 78 79 86 94 100 99 100 97 97 100 98 97 99 100 100 100 99 100 100 100 98 100 95 98 100 100 99 96 96 100 94 89 80 79 82 82 78 65 47 45 43 43 42 42 37 33 28 34 45
78 87 91 88 92 100 99 100 100 100 100 99 96 97 98 100 100 100 95 100 100 99 99 100 99 98 99 98 100 100 100 98 98 100 96 96 77 77 76 70 62 53 48 45 44 45 42 31 30 29 31 35 43 45
79 86 93 92 88 93 100 100 100 100 98 97 99 99 100 99 99 99 99 99 100 100 100 100 99 99 100 99 100 99 99 99 99 98 96 94 95 84 64 63 60 57 53 52 54 50 37 38 35 36 40 44 48 52
87 83 89 85 84 82 91 93 88 94 90 98 99 99 99 99 99 99 100 100 100 100 100 99 99 99 100 99 100 99 98 98 99 99 100 97 71 62 62 60 59 57 56 51 37 37 32 31 37 37 44 47 52 57
94 92 88 86 82 77 89 90 82 74 82 95 98 99 100 99 100 100 100 99 100 100 100 100 100 100 99 99 99 98 98 98 99 100 93 76 65 65 67 67 64 50 38 44 41 35 37 42 48 52 52 52 60 66
99 97 98 90 80 78 82 87 86 69 75 93 100 100 100 99 99 100 100 99 99 98 99 100 98 98 100 98 98 100 99 99 93 83 77 73 72 72 69 58 46 51 53 55 52 45 47 54 60 59 59 55 62 75
91 92 93 85 86 86 75 79 69 78 90 100 99 99 99 99 100 100 100 90 83 88 94 96 88 97 97 97 98 93 76 74 78 73 73 72 68 61 55 48 54 47 41 40 40 43 54 66 68 67 69 70 77 87
98 88 86 92 78 85 83 73 91 89 91 94 98 100 99 100 99 99 99 93 80 71 66 77 92 92 91 59 78 74 71 68 65 61 56 55 59 61 59 56 55 51 48 48 51 57 66 72 78 79 76 81 88 90
93 99 99 92 84 80 79 72 81 81 87 92 96 98 98 96 98 98 90 85 80 77 85 93 89 77 66 57 56 58 56 58 56 57 57 56 56 55 48 42 43 47 52 58 63 71 77 79 75 72 75 80 86 85
92 98 98 100 93 90 87 87 83 81 82 85 85 94 99 99 96 95 88 86 84 85 83 72 70 72 76 73 63 54 55 60 60 62 64 58 45 45 51 58 64 70 77 78 77 73 71 69 71 84 88 89 88 88
90 93 100 99 98 94 91 89 86 84 80 79 88 88 90 90 91 92 98 97 95 82 74 68 68 67 66 67 67 66 60 54 48 45 61 69 71 70 73 69 72 73 69 72 75 76 78 80 85 91 93 89 79 87
98 99 100 98 98 93 90 92 84 82 77 88 85 87 79 81 90 95 87 83 79 72 72 72 70 66 50 56 55 63 67 72 79 80 74 72 72 70 63 74 91 99 98 93 92 90 88 91 89 84 81 92 88 95
98 98 96 98 98 97 94 89 78 81 80 84 95 89 93 84 86 90 94 78 100 82 75 75 72 68 67 83 86 84 82 83 80 78 76 70 59 51 55 64 67 70 85 86 91 90 89 92 93 99 100 98 94 96
98 97 97 97 97 96 89 88 86 85 90 88 83 92 96 83 97 94 88 99 100 93 90 96 92 93 91 94 93 86 77 66 50 38 41 51 60 60 66 84 96 100 100 98 87 86 90 97 97 97 96 94 90 92
98 97 98 95 95 93 87 92 91 90 90 87 87 91 83 91 92 90 96 100 98 98 100 99 92 91 86 74 62 52 44 36 46 54 57 70 98 100 100 98 94 88 85 92 100 99 98 99 98 98 98 97 93 97
96 97 91 88 86 87 85 79 76 78 89 90 95 94 95 97 91 98 97 99 100 100 100 100 89 75 62 59 58 79 74 72 66 62 71 100 99 98 98 95 97 94 93 92 96 98 97 97 99 98 97 96 96 98
89 84 92 80 84 79 82 82 90 89 87 69 78 90 91 90 97 98 97 99 100 100 100 95 79 66 74 93 100 98 75 62 59 56 64 100 83 70 70 71 72 78 82 83 88 91 97 97 97 97 96 96 97 96
94 97 88 92 90 89 79 80 75 73 73 72 84 94 100 100 100 100 100 100 100 100 99 90 87 83 83 84 82 74 60 50 48 44 44 45 43 39 48 60 69 76 77 76 81 90 97 97 96 96 97 98 97 96
94 95 92 86 90 92 98 98 97 93 90 92 88 92 98 100 100 100 100 100 98 90 98 99 97 75 63 56 54 61 80 80 82 74 80 80 77 70 65 65 66 73 81 86 89 88 92 94 95 97 97 97 97 96
93 87 83 81 95 96 97 93 92 80 92 99 97 94 97 98 99 97 98 100 100 94 89 76 62 48 44 44 45 49 59 83 77 82 89 91 100 92 80 76 79 82 88 93 95 97 99 99 98 98 97 97 97 96
91 84 76 88 97 96 100 99 92 92 85 91 91 94 95 100 100 100 99 100 97 79 56 41 40 43 47 53 61 70 69 71 76 70 78 82 79 77 76 79 85 91 95 97 98 100 100 99 99 99 98 98 98 98
93 88 90 88 89 88 82 80 76 77 83 87 97 97 97 98 100 100 93 85 67 50 48 47 49 49 49 53 55 57 65 66 68 69 74 72 75 73 77 82 88 93 98 98 100 99 100 98 99 99 99 99 99 99

GFSWCAN_850_rhum_036.txt.gz
RH
89 90 80 61 58 54 51 50 47 42 37 36 38 44 41 41 38 36 42 45 48 60 76 62 54 52 54 52 81 65 68 71 99 81 80 91 99 81 74 71 82 88 93 95 94 93 82 49 52 58 58 69 74 79
94 84 78 61 59 56 53 50 47 43 40 36 37 42 48 45 44 34 43 45 38 45 74 69 67 62 52 49 50 60 44 72 62 94 98 95 96 96 95 81 62 62 68 82 75 77 48 50 47 48 58 70 81 76
100 93 74 63 63 60 54 50 47 45 42 38 36 37 42 46 45 37 35 37 40 62 72 66 64 67 67 59 51 50 67 61 65 50 94 97 90 94 97 94 71 55 59 81 73 57 64 57 65 68 75 75 77 79
98 88 73 68 68 64 56 52 48 45 42 41 38 36 36 40 44 45 37 37 34 38 65 80 73 58 64 67 60 52 48 58 60 66 96 97 97 80 90 70 73 54 59 68 73 92 87 85 77 77 79 76 72 63
100 95 82 74 69 66 58 56 51 47 45 44 42 39 39 39 38 38 40 42 38 38 85 79 78 71 59 60 65 64 60 59 72 81 98 96 83 92 95 88 94 62 67 81 84 58 67 69 77 82 77 68 53 52
100 100 96 92 86 81 70 64 56 51 49 48 45 43 45 45 41 41 43 50 49 50 46 88 86 76 67 77 65 66 70 68 72 69 84 81 87 76 96 98 69 60 60 58 61 66 72 74 85 86 69 56 54 50
99 94 93 94 94 91 86 75 64 59 56 55 53 50 48 51 49 44 49 61 65 52 40 99 90 83 81 89 88 88 85 86 81 76 86 82 80 83 100 98 61 48 56 56 68 74 88 88 86 77 61 57 47 37
100 100 100 98 98 93 87 85 76 69 66 64 63 63 62 63 67 68 70 67 63 49 50 98 93 84 86 86 83 89 83 80 85 91 98 89 88 98 100 92 73 68 69 76 78 76 71 78 70 68 63 42 37 38
99 100 100 100 100 98 90 92 86 81 82 81 82 76 74 70 71 75 68 68 71 62 74 92 88 89 91 99 92 91 89 99 98 100 100 95 99 98 89 84 77 78 76 77 85 76 73 63 67 64 42 40 39 41
95 98 97 100 100 100 94 96 93 92 100 100 85 75 79 76 81 78 76 68 68 77 80 95 89 98 92 99 100 93 99 100 100 93 100 100 99 85 78 79 74 73 78 85 78 74 56 43 44 42 42 43 44 43
78 77 85 90 92 100 100 98 99 100 99 94 86 92 89 89 80 75 79 89 98 97 93 98 95 96 95 96 100 93 100 100 93 89 96 97 98 89 80 80 76 78 84 76 75 66 60 79 54 44 44 42 38 28
79 74 67 69 75 88 100 100 100 99 99 97 78 96 98 93 93 99 100 99 100 99 100 100 100 97 100 94 92 100 99 100 94 98 100 96 93 88 81 84 84 82 75 69 84 74 45 43 40 29 24 23 24 27
88 89 98 100 98 92 86 98 100 100 100 98 91 95 95 99 100 99 98 100 99 99 100 100 99 98 100 96 100 100 100 98 95 100 99 96 90 93 91 94 90 60 64 67 48 44 44 34 30 25 26 31 36 40
90 88 93 99 100 100 100 100 100 98 97 96 99 99 99 99 99 99 99 99 100 100 100 100 100 99 100 100 100 99 99 99 99 98 96 93 99 98 83 74 62 50 46 48 54 50 34 32 28 29 37 44 48 49
89 87 85 87 95 94 97 99 100 95 95 99 99 98 98 99 100 100 100 100 100 100 99 99 99 99 100 99 100 99 98 98 98 98 100 99 99 79 63 61 58 56 56 47 35 35 34 33 35 37 42 50 54 59
86 88 85 82 81 77 76 79 78 68 79 92 99 99 100 99 100 100 100 99 100 100 100 99 100 99 98 99 98 98 98 97 98 99 96 95 94 76 62 60 60 48 45 43 42 44 42 40 43 49 54 52 60 68
89 96 88 80 78 76 78 71 68 58 89 89 100 100 100 99 100 100 100 100 100 99 99 99 98 96 99 98 98 99 98 99 88 74 89 94 76 70 67 60 48 50 43 39 40 41 43 47 58 66 66 61 67 76
90 91 84 81 82 69 66 70 63 82 99 100 99 100 100 100 99 99 97 100 95 92 97 93 87 98 97 97 98 95 86 79 84 96 98 87 76 67 59 56 56 48 42 42 48 52 58 66 68 65 71 76 82 77
86 86 84 75 73 75 73 76 82 92 99 99 100 99 99 99 100 100 95 83 73 69 68 75 90 94 93 77 81 77 74 77 73 72 66 58 59 62 59 56 51 46 51 55 58 62 66 72 74 73 73 81 79 83
66 77 80 78 74 76 73 79 84 82 93 94 100 99 99 99 98 97 88 85 80 75 75 91 90 81 62 66 68 68 70 64 59 63 63 62 58 55 53 60 63 61 57 56 58 62 68 73 73 78 84 81 80 81
77 81 76 75 73 79 81 84 79 81 82 88 98 97 98 97 95 88 79 82 81 85 82 75 79 76 76 72 66 60 62 64 62 60 58 50 64 75 71 68 64 56 59 69 81 80 86 91 89 87 88 94 98 97
89 92 85 90 96 87 86 86 84 81 76 84 94 90 87 86 88 89 97 96 94 84 77 71 70 70 70 75 77 69 65 63 62 70 79 80 71 69 73 73 68 56 60 80 87 88 84 76 66 61 67 88 84 99
97 98 100 98 95 91 92 84 78 80 76 90 92 88 83 79 89 96 86 85 90 85 79 74 71 67 78 82 73 61 68 79 80 82 80 78 76 65 50 42 45 54 62 79 95 96 92 82 75 76 84 100 100 100
95 99 97 99 99 97 98 89 82 80 84 84 97 97 96 84 91 92 99 97 99 96 80 71 71 83 87 88 81 86 85 83 78 65 49 38 34 39 52 70 82 93 100 100 91 83 82 83 86 91 96 98 97 96
98 96 97 98 98 97 96 95 95 93 97 97 95 100 98 85 98 100 96 99 99 99 97 88 86 96 94 96 94 82 68 50 39 36 39 47 53 61 68 76 84 84 80 76 74 79 81 84 87 90 92 95 96 97
96 98 97 92 96 98 92 98 98 95 94 92 92 96 86 97 99 95 95 98 97 98 97 96 96 97 90 80 67 57 53 49 52 52 54 62 68 83 84 82 76 67 70 76 78 80 81 85 91 92 93 91 93 95
99 97 97 95 96 98 95 88 82 82 93 96 98 100 98 99 100 96 98 97 96 100 100 100 95 82 70 65 64 61 60 62 56 54 63 77 88 92 75 66 64 66 65 67 71 76 84 91 95 96 96 92 95 97
91 91 88 96 97 97 96 97 96 92 90 85 84 97 96 94 96 99 98 99 98 98 99 99 92 77 70 72 76 72 63 52 52 50 62 93 79 43 40 40 44 48 50 54 63 73 83 90 96 98 95 94 98 98
95 98 95 97 97 97 95 91 87 97 96 86 86 99 99 97 100 99 100 98 98 100 100 98 88 85 83 81 72 57 42 33 29 27 28 30 31 35 38 43 45 47 49 53 60 77 91 100 100 98 99 100 98 97
96 97 96 96 96 97 100 98 99 100 98 89 89 96 97 100 100 100 100 99 99 96 96 90 82 78 67 51 45 47 46 39 46 50 54 52 53 52 53 52 53 57 66 78 84 85 88 94 91 95 98 98 97 97
97 97 94 94 99 99 95 99 100 100 100 95 94 90 97 99 100 99 98 97 96 96 94 84 72 49 40 38 38 45 50 56 60 61 60 60 60 60 58 61 66 74 82 86 89 95 98 95 97 98 98 97 97 98
88 88 86 96 94 97 99 98 90 89 86 89 89 94 96 98 95 97 100 100 96 88 68 49 45 43 44 46 48 52 58 59 62 63 61 62 63 62 64 67 73 79 81 86 88 93 95 97 100 100 99 99 99 99
92 86 91 91 93 94 81 84 94 95 94 97 97 97 99 99 98 100 96 94 86 61 53 48 48 49 52 52 55 59 62 65 68 68 69 71 69 67 67 70 76 81 84 86 88 92 95 96 98 100 100 100 100 100

GFSWCAN_850_rhum_042.txt.gz
RH
87 84 76 68 61 49 44 51 56 59 65 62 65 56 45 41 39 46 54 55 54 76 85 70 61 53 58 54 78 68 67 63 75 72 78 80 84 83 76 67 94 92 98 97 96 89 68 42 49 56 53 39 38 52
83 73 65 57 52 52 50 50 51 57 65 64 64 59 55 51 58 50 59 54 56 57 86 79 72 60 50 45 50 64 51 63 54 84 90 95 98 96 85 76 72 76 66 80 74 74 47 43 53 44 47 46 47 53
74 67 57 53 54 56 52 51 50 54 63 60 68 62 52 49 52 52 59 50 49 78 85 79 81 77 60 48 46 48 55 52 46 41 74 94 70 94 91 95 75 69 59 72 66 48 58 44 43 50 55 55 54 55
69 63 58 59 61 56 51 51 52 53 52 52 54 60 48 50 51 45 41 45 48 56 78 82 76 75 73 57 50 42 38 44 43 48 75 99 78 79 91 76 76 66 65 71 76 66 66 51 50 46 53 64 66 74
72 65 65 62 58 58 53 52 49 44 47 50 51 59 55 45 44 44 36 33 38 28 88 80 71 79 72 70 60 53 47 47 51 71 98 94 76 89 97 91 94 64 70 81 76 43 49 45 45 51 64 73 77 76
82 75 70 67 66 60 57 58 52 46 42 39 42 50 49 46 41 36 37 42 30 30 49 91 84 90 82 75 67 66 64 60 64 69 91 83 83 78 99 99 70 56 48 49 52 57 58 58 62 66 79 80 80 75
84 78 76 81 68 62 60 57 54 48 44 42 42 42 41 37 33 26 35 52 39 28 31 97 91 84 91 81 76 80 79 78 76 87 98 98 100 92 100 99 62 61 60 60 66 71 73 75 79 89 87 81 72 65
80 78 78 74 64 69 64 63 55 52 46 43 40 39 38 36 33 48 61 55 41 30 31 94 95 85 89 90 88 89 87 86 95 99 100 99 99 100 98 92 81 79 76 76 84 84 78 85 93 87 71 63 55 75
88 81 76 79 74 82 70 66 63 56 49 47 44 42 40 39 48 69 62 58 46 37 51 73 84 86 98 100 99 98 93 99 99 99 99 98 100 99 94 93 85 80 84 86 92 85 91 94 75 61 66 79 93 92
99 94 89 86 85 88 76 75 68 65 63 56 47 43 57 69 65 62 61 56 55 61 64 94 98 97 97 99 100 93 98 100 96 94 100 100 98 92 95 88 81 76 82 94 87 83 79 73 66 87 98 81 62 54
100 100 100 98 94 88 85 83 76 71 63 56 54 73 80 74 61 60 79 85 94 98 99 100 99 96 98 98 100 95 96 97 94 90 96 93 96 96 87 88 93 96 98 87 80 87 98 98 91 73 62 51 35 23
100 100 100 100 98 93 89 87 82 73 68 66 62 79 71 69 75 94 100 99 91 96 100 100 100 99 100 91 98 99 99 97 92 94 99 97 98 89 81 92 91 88 87 96 94 72 58 48 36 28 25 23 23 24
100 100 100 100 100 100 97 98 91 80 72 70 75 79 80 94 98 92 96 99 99 99 100 100 100 100 100 96 99 96 96 98 98 99 98 99 83 82 100 100 96 77 58 50 46 44 45 36 31 27 24 25 26 28
100 100 100 100 100 100 100 100 98 86 80 83 90 99 99 99 99 99 99 100 100 100 100 99 99 99 100 100 100 99 99 99 99 99 97 99 99 99 99 79 71 51 51 50 41 37 33 30 30 31 34 39 43 49
100 100 99 98 100 100 100 100 100 92 91 96 89 98 96 100 100 100 100 99 100 100 100 99 99 99 99 98 99 99 98 97 97 96 99 100 100 95 81 64 56 51 47 42 39 38 36 36 37 39 44 46 50 54
79 76 81 88 94 99 98 98 97 94 98 99 98 98 100 98 100 100 100 100 100 100 99 99 99 98 98 98 97 97 97 95 96 100 100 100 99 93 64 57 54 53 46 43 41 41 45 48 51 54 51 52 56 60
61 79 78 76 77 82 73 59 63 94 99 99 99 100 99 99 99 99 99 100 100 99 99 99 97 94 98 98 99 99 96 96 100 98 99 95 96 70 64 64 69 78 56 51 52 52 54 57 57 47 43 44 53 62
70 77 69 64 66 59 52 54 77 86 99 100 99 99 99 100 100 100 100 100 97 96 93 94 92 97 98 96 100 99 98 96 96 87 90 94 94 95 95 72 68 63 57 56 55 56 52 48 48 52 55 51 45 42
60 70 67 58 52 52 63 72 77 95 100 100 100 100 100 100 100 93 87 82 82 82 78 76 88 96 97 88 80 86 81 80 83 86 94 100 96 81 74 68 66 63 61 58 57 57 56 47 42 42 44 42 42 47
43 48 60 56 48 60 75 82 83 81 97 100 99 97 98 98 97 93 86 78 76 72 67 89 92 89 75 83 81 79 74 82 85 94 82 81 77 73 72 72 68 68 68 65 58 45 37 35 37 39 42 47 55 61
41 41 45 55 57 68 78 83 84 88 90 95 98 96 97 97 90 86 83 84 76 87 85 90 76 75 73 75 77 75 69 67 75 74 73 80 85 83 79 75 70 65 58 47 42 42 42 42 44 43 44 49 57 63
47 51 58 66 72 77 86 85 82 80 83 94 89 90 86 84 82 83 85 92 100 100 92 92 94 84 76 69 68 68 68 68 68 69 79 83 87 79 70 66 58 51 48 48 46 44 39 35 32 30 30 31 36 45
48 50 63 81 76 79 96 82 76 76 85 99 90 90 90 87 92 94 86 87 100 100 99 91 92 93 82 82 83 83 85 85 78 79 80 74 66 60 57 51 48 49 47 44 36 26 24 26 27 29 31 32 35 38
65 77 86 92 85 99 94 91 90 83 96 98 96 98 94 97 98 94 95 98 100 100 99 95 93 90 92 95 89 85 82 78 72 64 58 56 50 47 51 55 55 53 39 27 25 28 31 32 34 36 40 47 58 69
70 95 93 99 99 90 100 98 96 94 98 95 94 100 96 99 100 95 94 99 99 99 100 98 99 100 95 95 92 83 77 74 76 62 50 50 53 60 62 57 44 30 27 27 30 32 34 39 46 54 63 77 84 85
96 99 94 99 100 93 98 99 98 96 96 97 96 96 97 99 98 100 94 98 97 97 97 97 97 97 96 96 96 95 79 58 54 52 51 53 54 51 42 31 29 32 36 38 38 40 45 54 62 69 74 84 86 92
81 81 100 100 95 95 96 98 97 97 96 96 96 97 97 98 95 97 98 98 96 96 96 96 96 96 96 95 85 69 64 59 48 45 44 48 48 37 39 40 40 44 45 46 52 57 60 64 70 78 83 84 91 99
98 95 95 92 97 98 97 97 96 97 96 96 96 95 95 96 99 99 98 98 97 97 96 95 95 94 88 79 74 71 59 40 34 36 45 41 44 45 48 51 51 51 51 55 59 63 67 70 76 83 90 93 96 98
93 96 98 97 97 97 97 97 97 97 98 97 96 96 96 96 97 98 99 98 98 97 95 95 95 95 92 85 70 52 39 40 42 45 46 44 46 49 51 52 54 55 54 56 63 67 72 76 82 86 88 91 93 95
96 99 97 97 96 96 96 96 96 96 96 96 96 95 96 100 100 98 99 99 98 97 97 96 95 89 72 45 40 39 40 40 40 42 44 46 50 53 56 57 58 58 58 59 64 69 72 75 80 82 83 85 87 89
97 97 97 96 96 96 96 97 97 97 96 95 96 92 97 98 99 98 98 97 97 97 96 94 70 48 44 43 43 42 40 39 41 45 48 52 57 60 63 64 63 63 64 66 71 73 75 78 80 82 85 87 89 91
93 95 99 97 98 96 96 92 92 95 98 96 96 95 97 97 98 100 100 100 100 96 68 53 48 47 45 41 37 35 33 33 32 34 38 46 55 63 66 65 62 66 72 75 78 81 83 84 85 88 90 91 93 95
93 87 88 95 92 88 85 87 98 98 91 95 98 98 99 99 99 100 100 100 100 75 57 52 51 47 43 38 34 31 30 28 28 31 38 50 59 66 67 65 68 76 80 81 83 86 87 89 91 92 94 95 97 96

GFSWCAN_850_rhum_045.txt.gz
RH
99 95 98 94 83 68 58 53 62 72 72 74 65 55 51 49 59 52 52 53 51 72 86 71 57 53 58 55 79 71 65 64 74 80 89 74 78 70 65 60 80 76 92 96 91 81 68 40 49 56 49 38 42 49
99 99 91 79 71 66 64 81 76 71 70 68 66 62 55 45 51 51 55 60 61 71 87 82 69 57 50 46 50 60 52 62 52 81 82 87 90 98 78 67 74 68 63 72 65 64 44 38 49 42 46 43 42 48
88 78 74 72 66 68 78 75 75 74 73 75 73 62 51 48 52 58 52 49 75 90 91 82 83 75 56 49 47 49 57 52 45 42 69 87 73 86 86 82 71 68 63 66 64 48 55 44 37 40 45 53 53 55
70 71 68 64 68 69 68 74 78 76 81 76 69 59 51 53 61 51 49 64 76 71 91 85 82 77 68 54 47 42 38 44 41 42 65 94 85 77 81 65 70 62 64 65 68 60 52 43 47 46 48 54 62 65
77 75 71 63 66 72 72 65 72 72 76 68 64 64 69 62 52 46 40 54 60 43 95 86 86 87 76 64 52 46 43 39 42 63 95 89 80 88 94 86 86 68 67 76 74 46 46 46 53 55 60 71 80 81
77 76 74 74 72 68 61 65 69 68 70 67 61 62 59 57 51 41 43 44 32 53 60 98 88 97 87 73 60 56 53 52 59 68 100 92 83 80 100 97 66 62 64 63 57 66 69 68 71 72 80 85 86 82
74 70 69 74 70 52 64 66 69 58 68 66 64 62 59 52 42 33 34 37 32 30 36 97 94 91 88 82 80 80 76 75 74 96 96 99 100 91 100 86 77 80 78 76 74 73 76 83 88 92 88 87 76 81
69 71 72 74 67 64 67 65 68 71 71 60 61 56 48 38 36 51 47 38 29 25 28 96 95 89 92 94 92 89 86 84 95 100 99 99 99 98 100 92 90 88 88 86 88 84 85 95 94 83 74 63 64 84
71 80 78 75 69 76 64 67 69 68 65 52 48 42 39 34 46 66 52 41 31 26 48 71 87 92 98 100 100 98 96 99 99 100 99 96 100 98 98 99 87 85 93 98 96 98 93 82 67 64 72 93 97 88
79 90 75 73 71 75 73 77 73 68 65 57 41 37 50 70 55 47 40 41 40 51 57 97 99 99 98 99 100 96 98 100 98 94 100 100 99 99 89 93 95 88 90 97 90 96 79 78 94 98 87 64 57 54
98 99 97 86 79 72 65 68 68 65 62 44 50 79 74 60 50 52 73 86 87 96 99 99 98 96 98 98 99 97 99 95 94 85 94 94 91 98 95 95 97 99 97 87 84 94 96 88 74 58 53 50 37 27
100 100 100 90 80 82 91 79 77 57 53 65 63 66 65 65 66 90 99 97 92 97 100 100 100 99 100 92 97 99 97 92 89 91 92 92 97 97 100 98 96 93 94 87 72 56 45 38 35 32 29 28 28 29
100 100 100 98 95 92 90 91 83 78 70 71 66 68 70 86 98 88 96 100 100 100 100 100 100 98 100 98 97 92 89 93 92 100 93 97 87 100 100 99 77 64 59 52 48 48 43 36 30 26 29 31 32 34
100 100 100 100 100 100 100 91 84 74 70 74 89 100 94 100 99 99 100 100 100 100 100 99 99 99 100 93 100 99 100 99 99 98 96 98 99 99 87 64 57 52 51 48 42 38 32 33 36 37 39 44 51 53
99 100 100 100 100 100 99 95 87 78 84 90 80 98 97 100 100 100 100 99 100 100 98 96 99 97 100 98 99 98 99 95 89 91 97 100 99 98 85 67 54 52 50 47 45 44 46 49 52 57 64 67 66 62
98 97 98 100 100 100 100 99 98 89 89 95 96 99 100 98 100 100 100 100 100 100 99 99 99 98 97 96 96 96 95 92 92 99 100 100 99 94 66 59 57 52 49 50 54 59 65 65 63 61 61 50 42 37
63 75 84 96 96 92 98 96 98 96 99 99 99 100 100 99 100 100 99 100 100 99 100 99 96 96 95 96 99 94 92 90 98 100 99 100 98 70 66 68 85 83 69 66 67 69 64 60 56 47 38 31 27 25
67 63 66 68 60 49 47 70 94 96 98 99 98 99 99 99 99 99 99 100 98 98 98 95 91 95 95 95 98 94 100 97 99 100 100 99 99 96 93 90 71 68 68 69 65 61 57 52 42 33 30 27 25 24
56 59 55 54 49 47 63 75 78 96 99 99 99 99 99 99 100 98 93 89 86 85 82 72 84 93 95 92 88 94 100 99 99 100 100 99 99 98 97 90 80 75 69 64 61 57 45 37 34 32 30 24 20 20
31 42 50 44 42 54 76 82 80 86 98 99 98 97 99 99 99 93 82 78 75 71 72 91 93 96 84 92 84 82 87 84 76 97 97 97 95 90 86 80 72 70 67 61 50 40 36 33 28 20 18 18 20 21
22 28 43 39 55 66 83 86 85 92 92 95 98 96 98 97 93 86 82 84 74 98 97 100 94 96 94 89 85 83 81 86 88 80 80 93 92 83 80 76 71 64 55 45 39 36 28 21 19 20 23 25 25 25
29 30 39 56 67 79 86 81 81 80 86 98 91 91 94 91 84 85 85 91 100 100 100 100 96 88 82 75 74 71 72 74 77 80 90 89 88 84 77 68 58 51 44 40 32 23 21 22 24 25 25 26 31 41
29 35 60 68 72 80 94 79 75 76 90 96 86 88 94 93 95 94 85 96 99 99 100 100 100 95 82 86 84 82 82 79 77 83 87 81 74 67 61 54 50 46 38 27 23 23 25 26 26 28 34 41 50 60
43 58 73 84 87 100 87 86 87 88 97 97 92 98 95 98 98 90 91 98 98 98 99 99 99 97 95 95 88 87 84 81 77 72 66 64 59 53 54 51 45 32 24 23 25 29 30 31 37 46 52 57 67 72
59 92 84 100 98 86 100 99 91 92 100 95 92 98 94 97 98 92 95 98 97 97 97 97 97 97 96 96 88 81 74 70 80 86 65 56 55 55 52 38 28 25 26 28 31 33 36 43 51 56 63 70 74 76
94 100 95 100 100 94 99 100 100 97 96 97 97 97 97 96 97 97 93 98 96 96 97 97 97 96 96 97 96 96 94 85 58 54 53 54 51 42 30 28 29 33 36 40 41 41 46 52 58 63 67 72 77 81
88 94 100 100 97 95 95 100 98 98 97 96 96 96 95 95 92 96 97 97 96 96 96 96 96 96 96 96 95 83 63 53 44 42 42 41 35 33 35 36 39 43 47 48 50 52 56 60 64 69 71 77 83 87
100 98 95 95 96 100 99 100 98 98 96 97 96 95 95 94 93 99 97 97 97 97 96 96 95 96 95 92 79 70 49 37 35 36 36 36 39 42 47 51 55 55 56 57 59 63 67 70 73 75 79 82 84 87
97 100 100 98 100 98 97 98 97 97 97 97 96 94 96 96 96 96 96 97 97 97 96 95 96 96 96 94 76 46 38 38 39 41 41 43 48 51 54 57 58 61 61 62 67 70 73 76 79 83 85 86 87 90
98 98 97 97 97 96 98 97 96 96 96 96 95 95 96 97 97 97 97 97 97 97 96 95 95 92 71 44 42 42 42 41 39 38 39 41 43 50 56 60 62 63 61 60 65 72 77 81 85 87 88 89 90 92
97 98 97 97 98 98 97 98 98 96 96 95 95 95 96 96 98 98 97 97 97 97 96 88 56 47 46 44 39 37 37 36 29 27 27 30 37 43 48 52 54 56 58 64 73 77 80 83 85 87 89 92 93 94
94 96 98 97 98 96 95 95 97 96 97 96 96 97 98 98 98 100 100 100 97 73 62 55 52 51 46 40 36 33 31 29 27 26 28 32 39 46 50 54 60 67 74 80 84 85 87 88 90 92 94 96 96 95
97 91 94 96 91 89 82 82 95 98 93 96 98 98 98 99 99 100 100 100 93 68 61 58 54 50 49 47 45 39 36 33 34 40 46 53 58 60 68 79 84 85 86 87 89 90 90 91 92 94 95 92 80 68